Date,TemperatureHighF,TemperatureAvgF,TemperatureLowF,DewpointHighF,DewpointAvgF,DewpointLowF,HumidityHigh,HumidityAvg,HumidityLow,PressureMaxIn,PressureMinIn,WindSpeedMaxMPH,WindSpeedAvgMPH,GustSpeedMaxMPH,PrecipitationSumIn
2013-2-6,62,62,61,44,44,43,52,51,51,30.08,30.07,0,0,0,0.00
2013-2-7,61,61,60,43,43,42,52,52,52,30.07,30.06,0,0,1,0.00
2013-2-8,60,59,59,42,42,41,52,52,52,30.06,30.05,0,0,1,0.00
2013-2-9,59,58,58,41,40,40,52,52,52,30.05,30.04,0,0,1,0.00
2013-2-10,58,53,35,40,38,32,92,60,52,30.06,30.01,0,0,2,0.00
2013-2-11,60,44,29,42,36,28,97,76,44,30.23,30.06,4,0,6,0.00
2013-2-12,63,45,32,42,36,31,96,74,38,30.36,30.23,5,0,6,0.00
2013-2-13,38,37,37,34,34,34,89,88,86,30.31,30.30,1,0,1,0.00
2013-2-14,39,39,38,35,35,35,87,86,86,30.26,30.21,0,0,0,0.00
2013-2-15,40,39,39,36,36,35,87,87,87,30.21,30.17,0,0,0,0.00
2013-2-16,40,40,40,36,36,36,87,87,87,30.17,30.12,0,0,0,0.00
2013-2-17,40,40,40,37,37,36,87,87,87,30.12,30.07,0,0,0,0.00
2013-2-18,70,50,34,51,41,33,98,75,35,30.07,29.84,7,1,13,0.00
2013-2-19,53,46,38,43,39,36,95,79,59,29.94,29.69,8,1,15,0.30
2013-2-20,50,42,37,42,38,35,96,87,71,30.06,29.77,9,0,9,0.00
2013-2-21,37,37,37,36,35,35,94,93,93,30.06,30.04,2,0,2,0.00
2013-2-22,62,47,34,44,39,33,97,76,46,30.24,30.15,6,0,9,0.00
2013-2-23,60,47,35,47,39,31,97,74,47,30.22,30.05,16,1,16,0.00
2013-2-24,61,44,32,40,34,28,92,69,41,30.24,30.11,7,0,7,0.00
2013-2-25,67,48,31,44,36,29,96,68,32,30.26,30.10,7,0,7,0.00
2013-2-26,64,48,33,45,39,31,97,75,48,30.19,30.09,8,0,8,0.00
2013-2-27,68,50,33,46,40,32,96,71,36,30.32,30.18,7,0,7,0.00
2013-2-28,72,53,35,47,40,33,95,68,34,30.41,30.32,8,0,8,0.00